Time,TemperatureF,DewpointF,PressureIn,WindDirection,WindDirectionDegrees,WindSpeedMPH,WindSpeedGustMPH,Humidity,HourlyPrecipIn,Conditions,Clouds,dailyrainin,SolarRadiationWatts/m^2,SoftwareType,DateUTC
2013-05-16 00:00:00,51.4,46.4,29.70,WNW,293,0.0,0.0,83,0.00,,,0.00,0000,Weather View 32 v70,2013-05-16 04:00:00,
2013-05-16 00:05:00,51.3,46.3,29.70,WNW,293,0.0,0.0,83,0.00,,,0.00,0000,Weather View 32 v70,2013-05-16 04:05:00,
2013-05-16 00:10:00,51.2,46.2,29.70,WNW,293,0.0,0.0,83,0.00,,,0.00,0000,Weather View 32 v70,2013-05-16 04:10:00,
2013-05-16 00:15:00,51.0,46.4,29.70,WNW,293,0.0,0.0,84,0.00,,,0.00,0000,Weather View 32 v70,2013-05-16 04:15:00,
2013-05-16 00:20:00,50.9,46.2,29.70,WNW,293,0.0,0.0,84,0.00,,,0.00,0000,Weather View 32 v70,2013-05-16 04:20:00,
2013-05-16 00:25:00,50.8,46.5,29.70,NW,315,0.0,0.0,85,0.00,,,0.00,0000,Weather View 32 v70,2013-05-16 04:25:00,
2013-05-16 00:31:00,50.7,46.3,29.70,NW,315,0.0,0.0,85,0.00,,,0.00,0000,Weather View 32 v70,2013-05-16 04:31:00,
2013-05-16 00:40:00,50.4,46.0,29.70,NW,315,0.0,0.0,85,0.00,,,0.00,0000,Weather View 32 v70,2013-05-16 04:40:00,
2013-05-16 00:50:00,50.1,45.5,29.70,NW,315,0.0,0.0,84,0.00,,,0.00,0000,Weather View 32 v70,2013-05-16 04:50:00,
2013-05-16 01:00:00,49.7,45.0,29.71,NW,315,0.0,0.0,84,0.00,,,0.00,0008,Weather View 32 v70,2013-05-16 05:00:00,
2013-05-16 01:05:00,49.7,45.0,29.71,NW,315,0.0,0.0,84,0.00,,,0.00,0000,Weather View 32 v70,2013-05-16 05:05:00,
2013-05-16 01:15:00,49.5,45.1,29.71,WNW,293,0.0,0.0,85,0.00,,,0.00,0000,Weather View 32 v70,2013-05-16 05:15:00,
2013-05-16 01:25:00,49.2,44.6,29.71,WNW,293,0.0,0.0,84,0.00,,,0.00,0000,Weather View 32 v70,2013-05-16 05:25:00,
2013-05-16 01:30:00,49.2,44.9,29.71,WNW,293,0.0,0.0,85,0.00,,,0.00,0008,Weather View 32 v70,2013-05-16 05:30:00,
2013-05-16 01:40:00,49.2,44.9,29.70,North,0,0.0,0.0,85,0.00,,,0.00,0000,Weather View 32 v70,2013-05-16 05:40:00,
2013-05-16 01:50:00,49.6,45.2,29.70,NNW,338,0.0,0.0,85,0.00,,,0.00,0000,Weather View 32 v70,2013-05-16 05:50:00,
2013-05-16 01:55:00,49.7,45.4,29.70,NNW,338,0.0,0.0,85,0.00,,,0.00,0008,Weather View 32 v70,2013-05-16 05:55:00,
2013-05-16 02:05:00,49.8,45.5,29.69,NNW,338,0.0,0.0,85,0.00,,,0.00,0000,Weather View 32 v70,2013-05-16 06:05:00,
2013-05-16 02:15:00,49.9,45.3,29.70,NNW,338,0.0,0.0,84,0.00,,,0.00,0000,Weather View 32 v70,2013-05-16 06:15:00,
2013-05-16 02:20:00,49.8,45.2,29.70,NNW,338,0.0,0.0,84,0.00,,,0.00,0000,Weather View 32 v70,2013-05-16 06:20:00,
2013-05-16 02:25:00,49.9,45.3,29.70,West,270,0.0,0.0,84,0.00,,,0.00,0000,Weather View 32 v70,2013-05-16 06:25:00,
2013-05-16 02:32:00,50.0,45.7,29.70,NW,315,0.0,0.0,85,0.00,,,0.00,0000,Weather View 32 v70,2013-05-16 06:32:00,
2013-05-16 02:40:00,49.9,45.6,29.69,NW,315,0.0,0.0,85,0.00,,,0.00,0000,Weather View 32 v70,2013-05-16 06:40:00,
2013-05-16 02:50:00,49.8,45.5,29.69,NW,315,0.0,0.0,85,0.00,,,0.00,0000,Weather View 32 v70,2013-05-16 06:50:00,
2013-05-16 02:55:00,49.7,45.4,29.69,WNW,293,0.0,0.0,85,0.00,,,0.00,0000,Weather View 32 v70,2013-05-16 06:55:00,
2013-05-16 03:05:00,49.4,45.0,29.69,West,270,0.0,0.0,85,0.00,,,0.00,0000,Weather View 32 v70,2013-05-16 07:05:00,
2013-05-16 03:10:00,49.2,44.9,29.69,WNW,293,0.0,0.0,85,0.00,,,0.00,0000,Weather View 32 v70,2013-05-16 07:10:00,
2013-05-16 03:15:00,49.1,44.8,29.69,WNW,293,0.0,0.0,85,0.00,,,0.00,0000,Weather View 32 v70,2013-05-16 07:15:00,
2013-05-16 03:20:00,49.0,44.7,29.69,NW,315,0.0,0.0,85,0.00,,,0.00,0008,Weather View 32 v70,2013-05-16 07:20:00,
2013-05-16 03:25:00,48.8,44.5,29.69,NW,315,0.0,0.0,85,0.00,,,0.00,0000,Weather View 32 v70,2013-05-16 07:25:00,
2013-05-16 03:33:00,48.8,44.5,29.69,NW,315,0.0,0.0,85,0.00,,,0.00,0000,Weather View 32 v70,2013-05-16 07:33:00,
2013-05-16 03:40:00,48.6,44.6,29.70,NW,315,0.0,0.0,86,0.00,,,0.00,0000,Weather View 32 v70,2013-05-16 07:40:00,
2013-05-16 03:45:00,48.5,44.1,29.70,NW,315,0.0,0.0,85,0.00,,,0.00,0000,Weather View 32 v70,2013-05-16 07:45:00,
2013-05-16 03:50:00,48.2,43.9,29.70,NW,315,0.0,0.0,85,0.00,,,0.00,0000,Weather View 32 v70,2013-05-16 07:50:00,
2013-05-16 03:55:00,48.0,43.7,29.70,NW,315,0.0,0.0,85,0.00,,,0.00,0008,Weather View 32 v70,2013-05-16 07:55:00,
2013-05-16 04:05:00,47.4,43.1,29.70,North,0,0.0,0.0,85,0.00,,,0.00,0000,Weather View 32 v70,2013-05-16 08:05:00,
2013-05-16 04:15:00,47.1,42.5,29.70,North,0,0.0,0.0,84,0.00,,,0.00,0000,Weather View 32 v70,2013-05-16 08:15:00,
2013-05-16 04:20:00,46.9,42.3,29.70,North,0,0.0,0.0,84,0.00,,,0.00,0008,Weather View 32 v70,2013-05-16 08:20:00,
2013-05-16 04:25:00,46.8,42.2,29.70,North,0,0.0,0.0,84,0.00,,,0.00,0000,Weather View 32 v70,2013-05-16 08:25:00,
2013-05-16 04:30:00,46.7,42.1,29.70,North,0,0.0,0.0,84,0.00,,,0.00,0000,Weather View 32 v70,2013-05-16 08:30:00,
2013-05-16 04:40:00,46.3,41.7,29.70,North,0,0.0,0.0,84,0.00,,,0.00,0000,Weather View 32 v70,2013-05-16 08:40:00,
2013-05-16 04:45:00,46.2,41.6,29.69,North,0,0.0,0.0,84,0.00,,,0.00,0000,Weather View 32 v70,2013-05-16 08:45:00,
2013-05-16 04:55:00,46.0,41.7,29.69,North,0,0.0,0.0,85,0.00,,,0.00,0000,Weather View 32 v70,2013-05-16 08:55:00,
2013-05-16 05:05:00,46.1,41.8,29.70,North,0,0.0,0.0,85,0.00,,,0.00,0016,Weather View 32 v70,2013-05-16 09:05:00,
2013-05-16 05:15:00,46.3,42.4,29.70,NNW,338,0.0,0.0,86,0.00,,,0.00,0000,Weather View 32 v70,2013-05-16 09:15:00,
2013-05-16 05:20:00,46.5,42.6,29.70,NNW,338,0.0,0.0,86,0.00,,,0.00,0000,Weather View 32 v70,2013-05-16 09:20:00,
2013-05-16 05:25:00,46.7,42.7,29.70,NNW,338,0.0,0.0,86,0.00,,,0.00,0000,Weather View 32 v70,2013-05-16 09:25:00,
2013-05-16 05:30:00,46.8,43.1,29.70,NNW,338,0.0,0.0,87,0.00,,,0.00,0016,Weather View 32 v70,2013-05-16 09:30:00,
2013-05-16 05:40:00,47.1,43.4,29.70,NNW,338,0.0,0.0,87,0.00,,,0.00,0000,Weather View 32 v70,2013-05-16 09:40:00,
2013-05-16 05:50:00,47.7,44.0,29.70,NNW,338,0.0,0.0,87,0.00,,,0.00,0008,Weather View 32 v70,2013-05-16 09:50:00,
2013-05-16 05:55:00,48.0,44.3,29.70,North,0,0.0,0.0,87,0.00,,,0.00,0032,Weather View 32 v70,2013-05-16 09:55:00,
2013-05-16 06:05:00,48.5,44.8,29.70,North,0,0.0,0.0,87,0.00,,,0.00,0016,Weather View 32 v70,2013-05-16 10:05:00,
2013-05-16 06:15:00,48.9,45.2,29.71,NNW,338,0.0,0.0,87,0.00,,,0.00,0008,Weather View 32 v70,2013-05-16 10:15:00,
2013-05-16 06:20:00,49.0,45.3,29.71,NNW,338,0.0,0.0,87,0.00,,,0.00,0008,Weather View 32 v70,2013-05-16 10:20:00,
2013-05-16 06:25:00,49.0,45.3,29.71,NNW,338,0.0,0.0,87,0.00,,,0.00,0032,Weather View 32 v70,2013-05-16 10:25:00,
2013-05-16 06:34:00,48.9,45.2,29.71,NNW,338,0.0,0.0,87,0.00,,,0.00,0008,Weather View 32 v70,2013-05-16 10:34:00,
2013-05-16 06:40:00,48.8,44.8,29.71,NNW,338,0.0,0.0,86,0.00,,,0.00,0016,Weather View 32 v70,2013-05-16 10:40:00,
2013-05-16 06:50:00,48.8,44.8,29.72,NNW,338,0.0,0.0,86,0.00,,,0.00,0064,Weather View 32 v70,2013-05-16 10:50:00,
2013-05-16 06:55:00,49.0,45.0,29.72,NNW,338,0.0,0.0,86,0.00,,,0.00,0048,Weather View 32 v70,2013-05-16 10:55:00,
2013-05-16 07:05:00,49.2,45.2,29.72,NNW,338,0.0,0.0,86,0.00,,,0.00,0112,Weather View 32 v70,2013-05-16 11:05:00,
2013-05-16 07:15:00,49.6,45.9,29.72,NNW,338,0.0,0.0,87,0.00,,,0.00,0112,Weather View 32 v70,2013-05-16 11:15:00,
2013-05-16 07:20:00,49.7,46.0,29.72,NNW,338,0.0,0.0,87,0.00,,,0.00,0064,Weather View 32 v70,2013-05-16 11:20:00,
2013-05-16 07:25:00,49.8,46.1,29.72,NNW,338,0.0,0.0,87,0.00,,,0.00,0120,Weather View 32 v70,2013-05-16 11:25:00,
2013-05-16 07:35:00,50.5,46.7,29.73,NW,315,0.0,0.0,87,0.00,,,0.00,0072,Weather View 32 v70,2013-05-16 11:35:00,
2013-05-16 07:45:00,51.2,47.4,29.73,NW,315,0.0,0.0,87,0.00,,,0.00,0144,Weather View 32 v70,2013-05-16 11:45:00,
2013-05-16 07:50:00,51.5,47.7,29.74,WNW,293,0.0,0.0,87,0.00,,,0.00,0136,Weather View 32 v70,2013-05-16 11:50:00,
2013-05-16 08:00:00,52.2,48.1,29.74,West,270,0.0,0.0,86,0.00,,,0.00,0136,Weather View 32 v70,2013-05-16 12:00:00,
2013-05-16 08:05:00,52.6,48.2,29.74,West,270,0.0,2.0,85,0.00,,,0.00,0152,Weather View 32 v70,2013-05-16 12:05:00,
2013-05-16 08:15:00,54.0,49.6,29.75,WNW,293,0.0,2.0,85,0.00,,,0.00,0216,Weather View 32 v70,2013-05-16 12:15:00,
2013-05-16 08:20:00,54.4,49.7,29.75,West,270,0.0,2.0,84,0.00,,,0.00,0176,Weather View 32 v70,2013-05-16 12:20:00,
2013-05-16 08:25:00,54.6,49.6,29.76,WSW,248,0.0,2.0,83,0.00,,,0.00,0136,Weather View 32 v70,2013-05-16 12:25:00,
2013-05-16 08:35:00,55.0,49.6,29.76,West,270,0.0,2.0,82,0.00,,,0.00,0120,Weather View 32 v70,2013-05-16 12:35:00,
2013-05-16 08:40:00,55.2,49.8,29.76,WNW,293,0.0,2.0,82,0.00,,,0.00,0152,Weather View 32 v70,2013-05-16 12:40:00,
2013-05-16 08:45:00,55.4,50.0,29.76,WNW,293,0.0,2.0,82,0.00,,,0.00,0152,Weather View 32 v70,2013-05-16 12:45:00,
2013-05-16 08:55:00,56.4,51.0,29.76,WNW,293,0.0,2.0,82,0.00,,,0.00,0200,Weather View 32 v70,2013-05-16 12:55:00,
2013-05-16 09:00:00,56.9,51.1,29.76,West,270,0.0,2.0,81,0.00,,,0.00,0200,Weather View 32 v70,2013-05-16 13:00:00,
2013-05-16 09:05:00,57.5,50.6,29.76,WNW,293,0.0,5.0,78,0.00,,,0.00,0200,Weather View 32 v70,2013-05-16 13:05:00,
2013-05-16 09:15:00,58.8,49.0,29.76,WNW,293,0.0,11.0,70,0.00,,,0.00,0232,Weather View 32 v70,2013-05-16 13:15:00,
2013-05-16 09:25:00,59.8,50.0,29.76,NNW,338,0.0,11.0,70,0.00,,,0.00,0200,Weather View 32 v70,2013-05-16 13:25:00,
2013-05-16 09:35:00,60.5,49.5,29.76,WNW,293,0.0,11.0,67,0.00,,,0.00,0280,Weather View 32 v70,2013-05-16 13:35:00,
2013-05-16 09:40:00,60.9,48.6,29.76,WNW,293,0.0,11.0,64,0.00,,,0.00,0216,Weather View 32 v70,2013-05-16 13:40:00,
2013-05-16 09:50:00,61.3,49.0,29.76,West,270,0.0,11.0,64,0.00,,,0.00,0296,Weather View 32 v70,2013-05-16 13:50:00,
2013-05-16 09:55:00,61.7,49.8,29.76,West,270,0.0,11.0,65,0.00,,,0.00,0648,Weather View 32 v70,2013-05-16 13:55:00,
2013-05-16 10:00:00,62.6,50.2,29.76,West,270,0.0,11.0,64,0.00,,,0.00,0272,Weather View 32 v70,2013-05-16 14:00:00,
2013-05-16 10:05:00,63.0,49.7,29.76,SW,225,0.0,11.0,62,0.00,,,0.00,0232,Weather View 32 v70,2013-05-16 14:05:00,
2013-05-16 10:15:00,63.8,50.9,29.77,WNW,293,0.0,8.0,63,0.00,,,0.00,0248,Weather View 32 v70,2013-05-16 14:15:00,
2013-05-16 10:20:00,64.1,49.4,29.77,WNW,293,0.0,8.0,59,0.00,,,0.00,0312,Weather View 32 v70,2013-05-16 14:20:00,
2013-05-16 10:30:00,65.8,48.6,29.77,NNW,338,0.0,8.0,54,0.00,,,0.00,0600,Weather View 32 v70,2013-05-16 14:30:00,
2013-05-16 10:35:00,66.7,49.0,29.77,NW,315,0.0,8.0,53,0.00,,,0.00,0584,Weather View 32 v70,2013-05-16 14:35:00,
2013-05-16 10:45:00,68.6,46.3,29.77,WNW,293,0.0,16.0,45,0.00,,,0.00,0352,Weather View 32 v70,2013-05-16 14:45:00,
2013-05-16 10:55:00,68.9,43.5,29.77,WNW,293,0.0,16.0,40,0.00,,,0.00,0368,Weather View 32 v70,2013-05-16 14:55:00,
2013-05-16 11:00:00,69.0,44.3,29.76,WNW,293,1.0,16.0,41,0.00,,,0.00,0432,Weather View 32 v70,2013-05-16 15:00:00,
2013-05-16 11:05:00,69.3,43.2,29.76,WNW,293,0.0,16.0,39,0.00,,,0.00,0424,Weather View 32 v70,2013-05-16 15:05:00,
2013-05-16 11:15:00,69.9,44.4,29.76,SSW,203,0.0,16.0,40,0.00,,,0.00,0384,Weather View 32 v70,2013-05-16 15:15:00,
2013-05-16 11:20:00,70.6,45.1,29.76,WNW,293,3.0,16.0,40,0.00,,,0.00,0344,Weather View 32 v70,2013-05-16 15:20:00,
2013-05-16 11:25:00,70.8,45.9,29.76,WNW,293,1.0,16.0,41,0.00,,,0.00,0528,Weather View 32 v70,2013-05-16 15:25:00,
2013-05-16 11:35:00,71.9,46.8,29.75,SW,225,2.0,16.0,41,0.00,,,0.00,0400,Weather View 32 v70,2013-05-16 15:35:00,
2013-05-16 11:40:00,72.1,50.1,29.76,SW,225,3.0,16.0,46,0.00,,,0.00,0448,Weather View 32 v70,2013-05-16 15:40:00,
2013-05-16 11:45:00,72.1,47.0,29.75,WNW,293,0.0,16.0,41,0.00,,,0.00,0608,Weather View 32 v70,2013-05-16 15:45:00,
2013-05-16 11:50:00,72.3,46.6,29.75,SW,225,0.0,10.0,40,0.00,,,0.00,1104,Weather View 32 v70,2013-05-16 15:50:00,
2013-05-16 12:00:00,73.2,44.6,29.75,West,270,3.0,11.0,36,0.00,,,0.00,0504,Weather View 32 v70,2013-05-16 16:00:00,
2013-05-16 12:10:00,74.0,43.8,29.74,WNW,293,0.0,11.0,34,0.00,,,0.00,0784,Weather View 32 v70,2013-05-16 16:10:00,
2013-05-16 12:15:00,74.8,42.9,29.74,WSW,248,5.0,11.0,32,0.00,,,0.00,0672,Weather View 32 v70,2013-05-16 16:15:00,
2013-05-16 12:20:00,74.9,43.0,29.73,NNW,338,0.0,11.0,32,0.00,,,0.00,0840,Weather View 32 v70,2013-05-16 16:20:00,
2013-05-16 12:30:00,75.6,41.9,29.73,West,270,0.0,11.0,30,0.00,,,0.00,0824,Weather View 32 v70,2013-05-16 16:30:00,
2013-05-16 12:38:00,76.2,40.7,29.73,SSW,203,2.0,11.0,28,0.00,,,0.00,0840,Weather View 32 v70,2013-05-16 16:38:00,
2013-05-16 12:45:00,76.6,43.6,29.73,South,180,2.0,11.0,31,0.00,,,0.00,0864,Weather View 32 v70,2013-05-16 16:45:00,
2013-05-16 12:50:00,75.7,45.2,29.73,West,270,0.0,11.0,34,0.00,,,0.00,0824,Weather View 32 v70,2013-05-16 16:50:00,
2013-05-16 13:00:00,76.0,43.9,29.72,South,180,12.0,14.0,32,0.00,,,0.00,0832,Weather View 32 v70,2013-05-16 17:00:00,
2013-05-16 13:05:00,75.0,46.9,29.72,SSW,203,9.0,16.0,37,0.00,,,0.00,0840,Weather View 32 v70,2013-05-16 17:05:00,
2013-05-16 13:10:00,75.2,45.6,29.72,SSW,203,6.0,16.0,35,0.00,,,0.00,0816,Weather View 32 v70,2013-05-16 17:10:00,
2013-05-16 13:15:00,75.5,45.0,29.72,West,270,3.0,16.0,34,0.00,,,0.00,0840,Weather View 32 v70,2013-05-16 17:15:00,
2013-05-16 13:20:00,75.2,44.1,29.72,SSE,158,0.0,16.0,33,0.00,,,0.00,0840,Weather View 32 v70,2013-05-16 17:20:00,
2013-05-16 13:30:00,75.7,41.1,29.72,NW,315,0.0,16.0,29,0.00,,,0.00,0840,Weather View 32 v70,2013-05-16 17:30:00,
2013-05-16 13:38:00,75.5,43.5,29.72,SW,225,0.0,16.0,32,0.00,,,0.00,0816,Weather View 32 v70,2013-05-16 17:38:00,
2013-05-16 13:45:00,75.1,46.3,29.72,West,270,0.0,16.0,36,0.00,,,0.00,0840,Weather View 32 v70,2013-05-16 17:45:00,
2013-05-16 13:50:00,75.5,43.5,29.72,SE,135,6.0,16.0,32,0.00,,,0.00,0824,Weather View 32 v70,2013-05-16 17:50:00,
2013-05-16 14:00:00,74.7,44.4,29.72,WSW,248,3.0,16.0,34,0.00,,,0.00,0792,Weather View 32 v70,2013-05-16 18:00:00,
2013-05-16 14:05:00,73.9,42.9,29.72,SSW,203,5.0,33.0,33,0.00,,,0.00,0768,Weather View 32 v70,2013-05-16 18:05:00,
2013-05-16 14:10:00,74.6,44.3,29.72,NNW,338,0.0,33.0,34,0.00,,,0.00,0800,Weather View 32 v70,2013-05-16 18:10:00,
2013-05-16 14:20:00,75.2,44.1,29.71,NW,315,6.0,33.0,33,0.00,,,0.00,0784,Weather View 32 v70,2013-05-16 18:20:00,
2013-05-16 14:25:00,75.0,43.1,29.72,WSW,248,4.0,33.0,32,0.00,,,0.00,0792,Weather View 32 v70,2013-05-16 18:25:00,
2013-05-16 14:30:00,74.7,42.8,29.71,West,270,0.0,33.0,32,0.00,,,0.00,0760,Weather View 32 v70,2013-05-16 18:30:00,
2013-05-16 14:35:00,74.8,44.4,29.71,SE,135,6.0,33.0,34,0.00,,,0.00,0760,Weather View 32 v70,2013-05-16 18:35:00,
2013-05-16 14:40:00,74.9,44.6,29.71,WSW,248,1.0,33.0,34,0.00,,,0.00,0728,Weather View 32 v70,2013-05-16 18:40:00,
2013-05-16 14:50:00,75.0,43.1,29.71,South,180,8.0,33.0,32,0.00,,,0.00,0720,Weather View 32 v70,2013-05-16 18:50:00,
2013-05-16 14:55:00,74.4,41.7,29.71,WSW,248,6.0,33.0,31,0.00,,,0.00,0728,Weather View 32 v70,2013-05-16 18:55:00,
2013-05-16 15:05:00,74.8,44.4,29.71,SSW,203,3.0,13.0,34,0.00,,,0.00,0696,Weather View 32 v70,2013-05-16 19:05:00,
2013-05-16 15:10:00,75.0,43.9,29.71,WSW,248,0.0,14.0,33,0.00,,,0.00,0704,Weather View 32 v70,2013-05-16 19:10:00,
2013-05-16 15:15:00,74.9,43.0,29.71,SSE,158,5.0,14.0,32,0.00,,,0.00,0696,Weather View 32 v70,2013-05-16 19:15:00,
2013-05-16 15:25:00,74.7,42.8,29.71,SSW,203,5.0,15.0,32,0.00,,,0.00,0632,Weather View 32 v70,2013-05-16 19:25:00,
2013-05-16 15:30:00,74.7,43.6,29.71,WSW,248,0.0,18.0,33,0.00,,,0.00,0624,Weather View 32 v70,2013-05-16 19:30:00,
2013-05-16 15:35:00,74.8,44.4,29.71,West,270,1.0,18.0,34,0.00,,,0.00,0648,Weather View 32 v70,2013-05-16 19:35:00,
2013-05-16 15:45:00,75.1,46.3,29.71,WNW,293,0.0,18.0,36,0.00,,,0.00,0608,Weather View 32 v70,2013-05-16 19:45:00,
2013-05-16 15:50:00,75.6,45.1,29.71,SW,225,4.0,20.0,34,0.00,,,0.00,0608,Weather View 32 v70,2013-05-16 19:50:00,
2013-05-16 15:55:00,75.7,43.6,29.71,SW,225,6.0,20.0,32,0.00,,,0.00,0584,Weather View 32 v70,2013-05-16 19:55:00,
2013-05-16 16:05:00,75.0,43.9,29.71,WSW,248,4.0,20.0,33,0.00,,,0.00,0568,Weather View 32 v70,2013-05-16 20:05:00,
2013-05-16 16:10:00,75.0,41.4,29.71,WNW,293,3.0,20.0,30,0.00,,,0.00,0560,Weather View 32 v70,2013-05-16 20:10:00,
2013-05-16 16:15:00,75.1,42.3,29.71,WNW,293,1.0,20.0,31,0.00,,,0.00,0552,Weather View 32 v70,2013-05-16 20:15:00,
2013-05-16 16:25:00,74.6,42.7,29.70,SSW,203,4.0,20.0,32,0.00,,,0.00,0496,Weather View 32 v70,2013-05-16 20:25:00,
2013-05-16 16:30:00,74.8,44.4,29.70,NW,315,0.0,20.0,34,0.00,,,0.00,0496,Weather View 32 v70,2013-05-16 20:30:00,
2013-05-16 16:40:00,75.0,44.6,29.70,SSE,158,0.0,20.0,34,0.00,,,0.00,0456,Weather View 32 v70,2013-05-16 20:40:00,
2013-05-16 16:50:00,74.3,43.3,29.70,North,0,0.0,15.0,33,0.00,,,0.00,0456,Weather View 32 v70,2013-05-16 20:50:00,
2013-05-16 16:55:00,73.9,44.4,29.70,WSW,248,0.0,15.0,35,0.00,,,0.00,0408,Weather View 32 v70,2013-05-16 20:55:00,
2013-05-16 17:00:00,74.1,44.6,29.70,SW,225,0.0,15.0,35,0.00,,,0.00,0408,Weather View 32 v70,2013-05-16 21:00:00,
2013-05-16 17:10:00,73.5,44.9,29.70,SW,225,2.0,15.0,36,0.00,,,0.00,0064,Weather View 32 v70,2013-05-16 21:10:00,
2013-05-16 17:20:00,72.9,44.3,29.70,South,180,3.0,15.0,36,0.00,,,0.00,0064,Weather View 32 v70,2013-05-16 21:20:00,
2013-05-16 17:25:00,72.2,45.1,29.70,SW,225,0.0,15.0,38,0.00,,,0.00,0064,Weather View 32 v70,2013-05-16 21:25:00,
2013-05-16 17:30:00,72.0,44.9,29.70,West,270,0.0,15.0,38,0.00,,,0.00,0112,Weather View 32 v70,2013-05-16 21:30:00,
2013-05-16 17:35:00,71.5,43.8,29.70,NNW,338,0.0,13.0,37,0.00,,,0.00,0072,Weather View 32 v70,2013-05-16 21:35:00,
2013-05-16 17:43:00,71.2,44.2,29.70,SSW,203,2.0,13.0,38,0.00,,,0.00,0032,Weather View 32 v70,2013-05-16 21:43:00,
2013-05-16 17:50:00,70.6,43.0,29.70,NNW,338,3.0,14.0,37,0.00,,,0.00,0040,Weather View 32 v70,2013-05-16 21:50:00,
2013-05-16 17:55:00,70.4,42.8,29.70,WSW,248,0.0,14.0,37,0.00,,,0.00,0088,Weather View 32 v70,2013-05-16 21:55:00,
2013-05-16 18:00:00,70.2,43.3,29.70,ENE,68,2.0,14.0,38,0.00,,,0.00,0048,Weather View 32 v70,2013-05-16 22:00:00,
2013-05-16 18:10:00,69.6,42.8,29.70,West,270,4.0,14.0,38,0.00,,,0.00,0064,Weather View 32 v70,2013-05-16 22:10:00,
2013-05-16 18:20:00,69.3,42.5,29.70,SSW,203,5.0,14.0,38,0.00,,,0.00,0088,Weather View 32 v70,2013-05-16 22:20:00,
2013-05-16 18:25:00,69.0,42.3,29.70,WSW,248,6.0,14.0,38,0.00,,,0.00,0064,Weather View 32 v70,2013-05-16 22:25:00,
2013-05-16 18:30:00,68.8,42.1,29.70,SW,225,3.0,14.0,38,0.00,,,0.00,0120,Weather View 32 v70,2013-05-16 22:30:00,
2013-05-16 18:35:00,68.6,43.2,29.70,WNW,293,0.0,14.0,40,0.00,,,0.00,0032,Weather View 32 v70,2013-05-16 22:35:00,
2013-05-16 18:40:00,68.5,42.5,29.70,NW,315,0.0,14.0,39,0.00,,,0.00,0056,Weather View 32 v70,2013-05-16 22:40:00,
2013-05-16 18:45:00,68.4,42.4,29.70,West,270,1.0,14.0,39,0.00,,,0.00,0024,Weather View 32 v70,2013-05-16 22:45:00,
2013-05-16 18:55:00,67.9,43.3,29.70,West,270,0.0,13.0,41,0.00,,,0.00,0032,Weather View 32 v70,2013-05-16 22:55:00,
2013-05-16 19:00:00,67.7,43.1,29.71,WSW,248,5.0,13.0,41,0.00,,,0.00,0032,Weather View 32 v70,2013-05-16 23:00:00,
2013-05-16 19:05:00,67.5,42.9,29.71,WSW,248,0.0,13.0,41,0.00,,,0.00,0016,Weather View 32 v70,2013-05-16 23:05:00,
2013-05-16 19:15:00,67.0,43.1,29.72,WNW,293,0.0,13.0,42,0.00,,,0.00,0008,Weather View 32 v70,2013-05-16 23:15:00,
2013-05-16 19:20:00,66.8,43.5,29.71,SW,225,0.0,13.0,43,0.00,,,0.00,0008,Weather View 32 v70,2013-05-16 23:20:00,
2013-05-16 19:25:00,66.5,43.2,29.72,SSE,158,3.0,13.0,43,0.00,,,0.00,0000,Weather View 32 v70,2013-05-16 23:25:00,
2013-05-16 19:30:00,66.2,43.6,29.72,NW,315,0.0,12.0,44,0.00,,,0.00,0016,Weather View 32 v70,2013-05-16 23:30:00,
2013-05-16 19:35:00,65.8,43.2,29.72,West,270,0.0,12.0,44,0.00,,,0.00,0000,Weather View 32 v70,2013-05-16 23:35:00,
2013-05-16 19:44:00,65.6,44.2,29.72,WNW,293,4.0,12.0,46,0.00,,,0.00,0000,Weather View 32 v70,2013-05-16 23:44:00,
2013-05-16 19:50:00,65.0,45.3,29.73,WSW,248,4.0,12.0,49,0.00,,,0.00,0024,Weather View 32 v70,2013-05-16 23:50:00,
2013-05-16 20:00:00,64.3,45.8,29.74,WSW,248,2.0,12.0,51,0.00,,,0.00,0000,Weather View 32 v70,2013-05-17 00:00:00,
2013-05-16 20:10:00,63.8,45.7,29.74,WSW,248,0.0,11.0,52,0.00,,,0.00,0000,Weather View 32 v70,2013-05-17 00:10:00,
2013-05-16 20:20:00,63.0,45.5,29.74,West,270,1.0,17.0,53,0.00,,,0.00,0000,Weather View 32 v70,2013-05-17 00:20:00,
2013-05-16 20:25:00,62.6,45.2,29.74,South,180,0.0,17.0,53,0.00,,,0.00,0000,Weather View 32 v70,2013-05-17 00:25:00,
2013-05-16 20:30:00,62.4,45.5,29.74,NW,315,0.0,17.0,54,0.00,,,0.00,0000,Weather View 32 v70,2013-05-17 00:30:00,
2013-05-16 20:40:00,61.8,45.5,29.75,WSW,248,4.0,17.0,55,0.00,,,0.00,0008,Weather View 32 v70,2013-05-17 00:40:00,
2013-05-16 20:45:00,61.7,45.3,29.75,West,270,0.0,17.0,55,0.00,,,0.00,0008,Weather View 32 v70,2013-05-17 00:45:00,
2013-05-16 20:50:00,61.4,45.5,29.76,WSW,248,0.0,17.0,56,0.00,,,0.00,0000,Weather View 32 v70,2013-05-17 00:50:00,
2013-05-16 21:00:00,60.9,45.6,29.76,West,270,0.0,17.0,57,0.00,,,0.00,0000,Weather View 32 v70,2013-05-17 01:00:00,
2013-05-16 21:10:00,60.5,45.6,29.76,NNW,338,0.0,17.0,58,0.00,,,0.00,0008,Weather View 32 v70,2013-05-17 01:10:00,
2013-05-16 21:15:00,60.3,45.4,29.76,NW,315,0.0,9.0,58,0.00,,,0.00,0000,Weather View 32 v70,2013-05-17 01:15:00,
2013-05-16 21:25:00,59.9,46.0,29.77,SW,225,0.0,12.0,60,0.00,,,0.00,0000,Weather View 32 v70,2013-05-17 01:25:00,
2013-05-16 21:30:00,59.8,45.9,29.77,West,270,0.0,12.0,60,0.00,,,0.00,0000,Weather View 32 v70,2013-05-17 01:30:00,
2013-05-16 21:35:00,59.8,45.9,29.77,West,270,3.0,12.0,60,0.00,,,0.00,0000,Weather View 32 v70,2013-05-17 01:35:00,
2013-05-16 21:40:00,59.9,46.0,29.77,WNW,293,0.0,12.0,60,0.00,,,0.00,0000,Weather View 32 v70,2013-05-17 01:40:00,
2013-05-16 21:45:00,59.8,45.9,29.77,WNW,293,0.0,12.0,60,0.00,,,0.00,0000,Weather View 32 v70,2013-05-17 01:45:00,
2013-05-16 21:55:00,59.6,46.1,29.77,NW,315,0.0,12.0,61,0.00,,,0.00,0008,Weather View 32 v70,2013-05-17 01:55:00,
2013-05-16 22:05:00,59.1,46.5,29.77,NNW,338,0.0,12.0,63,0.00,,,0.00,0000,Weather View 32 v70,2013-05-17 02:05:00,
2013-05-16 22:15:00,58.5,46.3,29.78,NNW,338,0.0,12.0,64,0.00,,,0.00,0000,Weather View 32 v70,2013-05-17 02:15:00,
2013-05-16 22:25:00,58.1,46.4,29.78,WNW,293,0.0,7.0,65,0.00,,,0.00,0000,Weather View 32 v70,2013-05-17 02:25:00,
2013-05-16 22:30:00,57.8,46.5,29.78,NNW,338,0.0,7.0,66,0.00,,,0.00,0000,Weather View 32 v70,2013-05-17 02:30:00,
2013-05-16 22:40:00,57.3,46.5,29.78,NW,315,0.0,7.0,67,0.00,,,0.00,0008,Weather View 32 v70,2013-05-17 02:40:00,
2013-05-16 22:46:00,57.0,46.1,29.79,NW,315,0.0,7.0,67,0.00,,,0.00,0000,Weather View 32 v70,2013-05-17 02:46:00,
2013-05-16 22:55:00,56.6,46.1,29.79,NNW,338,0.0,0.0,68,0.00,,,0.00,0000,Weather View 32 v70,2013-05-17 02:55:00,
2013-05-16 23:00:00,56.2,45.8,29.80,NNW,338,0.0,0.0,68,0.00,,,0.00,0000,Weather View 32 v70,2013-05-17 03:00:00,
2013-05-16 23:10:00,55.9,45.8,29.80,NW,315,0.0,0.0,69,0.00,,,0.00,0000,Weather View 32 v70,2013-05-17 03:10:00,
2013-05-16 23:15:00,55.8,45.7,29.79,NW,315,0.0,0.0,69,0.00,,,0.00,0000,Weather View 32 v70,2013-05-17 03:15:00,
2013-05-16 23:25:00,55.1,45.5,29.80,NNW,338,0.0,0.0,70,0.00,,,0.00,0000,Weather View 32 v70,2013-05-17 03:25:00,
2013-05-16 23:35:00,54.8,44.8,29.80,NNW,338,0.0,0.0,69,0.00,,,0.00,0000,Weather View 32 v70,2013-05-17 03:35:00,
2013-05-16 23:45:00,54.5,44.5,29.80,NNW,338,0.0,0.0,69,0.00,,,0.00,0000,Weather View 32 v70,2013-05-17 03:45:00,
2013-05-16 23:50:00,54.4,44.4,29.80,NNW,338,0.0,0.0,69,0.00,,,0.00,0008,Weather View 32 v70,2013-05-17 03:50:00,
2013-05-16 23:55:00,54.3,44.3,29.81,NNW,338,0.0,0.0,69,0.00,,,0.00,0000,Weather View 32 v70,2013-05-17 03:55:00,